Location: Arborea
(39.7744°N, 8.5819°E)
Time: 05:18:28
(UTC+00:00)

Cosmos 2322 - Pass Details

Date: 03 June 2022
Orbit: 840 x 855 km, 71.0° (Epoch: 03 July)

Event Time Altitude Azimuth Distance (km) Brightness Sun altitude
Exits shadow 22:17:04 - 242° (WSW) 2,568 6.1 -25.9°
Reaches altitude 10° 22:17:20 10° 243° (WSW) 2,480 6.0 -25.9°
Maximum altitude 22:22:15 29° 303° (WNW) 1,513 5.4 -26.2°
Drops below altitude 10° 22:27:12 10° 3° (N) 2,493 7.1 -26.4°
Sets 22:30:00 0° 15° (NNE) 3,433 7.8 -26.6°
